Theta_e
322 322 322 323 323 323 323 323 324 324 324 324 324 325 325 324 321 325 319 321 324 340 331 320 321 320 319 316 316 317 309 308 310 310 312 318 316 324 327 323 324 331 324 331 341
322 322 322 323 323 323 323 323 323 323 323 324 324 324 324 324 319 320 326 337 338 339 318 318 317 319 314 315 314 313 310 312 316 314 313 315 316 321 319 320 323 328 332 333 340
321 321 322 322 323 323 323 323 323 323 324 324 323 323 323 322 318 319 337 335 337 329 320 321 319 317 313 315 314 314 311 318 315 315 315 314 314 318 317 315 322 320 322 338 336
320 321 321 322 322 322 322 323 323 324 324 323 323 323 323 320 309 319 343 344 342 322 320 320 318 314 312 310 316 311 316 316 315 315 314 313 316 316 317 318 326 326 334 334 335
320 320 320 321 321 321 322 322 322 323 323 322 323 324 318 318 317 323 342 336 322 320 319 317 315 315 312 313 314 312 316 316 316 315 314 316 314 315 316 320 326 328 334 329 325
320 319 319 320 321 321 321 321 321 321 321 322 324 322 321 314 323 323 324 322 322 320 318 318 316 316 314 312 312 316 316 315 314 315 316 313 314 315 318 323 322 320 328 332 328
320 320 319 320 320 321 321 320 319 320 322 323 324 321 318 317 323 324 322 321 322 320 317 319 319 315 316 312 315 315 311 313 314 314 313 314 310 311 319 319 317 318 319 327 330
319 318 318 319 320 320 321 321 320 321 322 323 324 319 318 322 324 322 323 321 322 321 319 320 319 316 314 316 313 309 311 306 313 313 313 312 305 316 319 318 317 318 327 336 333
318 318 318 318 319 320 320 320 320 321 323 324 320 319 317 322 319 321 322 318 320 320 319 319 316 313 314 309 306 309 303 306 308 314 312 311 307 315 319 318 317 319 335 335 330
317 317 317 318 318 319 318 318 320 322 321 323 321 316 320 315 319 319 321 319 316 317 316 316 314 310 310 307 301 304 304 306 306 311 312 310 308 313 317 318 317 323 334 330 326
316 316 316 317 318 317 317 323 321 319 324 318 318 318 316 320 321 319 320 318 318 316 311 315 310 308 309 310 309 308 306 305 309 312 310 309 309 312 316 318 318 322 330 326 325
316 316 316 316 317 318 319 323 321 323 315 322 318 318 320 321 314 317 321 315 315 311 313 312 308 311 311 310 309 309 307 307 310 312 310 309 308 312 316 320 321 329 328 325 325
314 314 315 316 317 316 324 322 328 326 317 316 317 316 316 319 315 315 318 316 313 311 311 309 310 312 310 309 308 309 307 307 305 309 310 308 306 309 318 321 321 325 326 324 323
313 314 315 314 314 326 324 326 329 328 312 309 312 315 317 318 312 318 319 316 313 310 311 310 313 309 309 309 309 305 311 309 307 306 300 309 298 309 314 310 312 321 320 321 322
313 314 314 310 321 322 326 327 327 325 301 312 312 322 318 314 315 314 319 317 312 311 311 309 310 309 309 309 311 307 311 309 307 305 304 303 302 305 315 309 316 318 317 316 315
313 313 312 318 323 324 326 327 325 309 301 309 313 311 311 313 313 315 316 318 316 312 312 311 315 312 311 312 312 313 308 307 307 305 297 303 303 304 310 314 314 314 311 311 310
312 312 313 323 320 327 326 322 308 302 316 309 308 311 310 309 310 311 311 311 308 305 307 311 310 314 315 310 312 309 305 297 296 297 294 303 302 308 312 313 314 311 310 308 307
311 309 319 323 326 328 324 314 302 309 309 314 311 311 308 311 309 310 309 308 313 311 306 304 302 311 314 310 306 305 305 298 291 293 294 305 296 305 312 314 315 312 309 307 307
308 325 327 328 327 328 319 306 306 311 313 310 311 306 307 310 309 310 309 309 312 313 305 304 304 313 313 312 310 306 303 308 302 301 297 300 307 312 313 312 312 311 308 307 307
321 322 324 326 329 325 314 306 310 314 313 312 306 310 306 308 308 309 309 314 311 314 315 309 302 310 311 312 312 309 309 300 302 292 290 296 299 300 307 310 309 307 307 308 310
324 317 325 326 327 317 309 310 310 314 313 311 310 310 310 308 310 308 309 313 315 313 315 312 309 305 308 306 305 306 303 305 304 301 293 291 295 308 307 309 307 307 307 308 309
324 312 325 325 313 314 311 313 306 311 313 312 312 312 310 311 310 309 309 313 315 313 309 313 309 301 303 309 312 310 307 306 297 296 299 297 297 310 309 310 310 308 308 310 310
318 315 324 321 310 312 312 310 310 309 310 311 311 312 314 311 307 310 311 314 314 314 311 312 306 298 300 305 310 305 308 307 306 306 297 294 297 310 309 308 309 308 309 310 310
319 310 318 318 317 314 312 309 307 312 309 311 310 313 311 309 312 308 309 313 316 313 316 316 309 304 297 300 304 302 303 305 305 298 298 298 300 303 305 306 307 308 308 308 307
319 314 316 311 314 314 312 311 308 306 311 312 310 310 309 307 309 309 311 311 314 312 312 314 305 305 305 305 304 303 303 303 302 303 298 300 300 302 305 307 308 308 308 307 306
310 311 317 311 314 311 307 309 308 309 309 310 309 311 312 310 311 309 311 312 310 314 314 317 303 304 300 303 304 301 304 305 305 305 304 303 298 306 308 308 308 307 306 305 304
318 320 314 309 311 308 309 310 309 311 311 312 313 311 312 312 315 315 315 314 313 310 309 310 305 302 297 304 304 299 304 304 305 306 304 298 301 306 305 306 307 307 306 304 303
Wind_Speed
8 9 9 9 8 8 9 10 10 10 11 12 12 13 13 15 20 6 9 1 2 2 6 12 14 12 14 14 17 16 13 12 19 2 7 9 7 8 7 11 12 9 21 19 15
9 9 9 9 10 10 10 10 10 11 12 12 13 13 12 13 13 15 2 5 3 3 9 15 16 7 12 14 7 14 8 10 10 11 10 4 1 12 4 7 9 18 20 23 23
9 10 10 10 10 9 10 10 11 12 12 12 13 13 11 13 10 3 6 6 3 3 13 19 11 12 16 11 10 15 11 16 5 9 9 12 9 3 10 10 4 14 28 24 18
8 8 9 10 10 10 10 11 12 12 12 12 13 13 12 7 4 6 4 4 4 9 14 20 13 13 15 5 14 10 4 7 10 8 6 10 9 8 6 2 11 16 28 11 13
9 10 10 10 10 10 11 11 12 12 12 12 12 11 12 8 7 10 9 6 9 12 19 16 11 12 11 8 2 10 13 4 3 6 3 10 8 8 12 8 13 8 27 20 18
10 10 10 10 10 10 11 12 12 12 12 12 9 14 7 15 10 11 10 10 13 16 15 10 10 12 11 8 7 6 12 8 4 2 6 4 15 15 2 10 13 14 19 23 29
11 10 10 10 10 11 11 12 12 12 12 12 8 7 10 15 2 9 7 12 6 9 10 8 10 13 14 12 5 8 10 13 12 5 3 4 17 11 12 8 9 11 15 4 13
12 11 11 11 11 11 11 12 13 12 12 12 6 8 10 4 5 8 10 10 7 8 7 10 9 13 13 14 8 10 13 15 11 7 7 4 11 13 9 10 12 13 20 28 24
14 13 12 12 12 11 11 12 14 13 11 9 6 9 13 5 8 10 13 11 4 7 8 8 11 14 15 14 14 14 11 16 10 6 1 7 10 10 8 7 10 8 22 24 22
15 13 12 12 12 11 11 8 4 8 6 10 11 10 14 2 4 1 7 5 8 10 10 11 12 14 16 12 9 14 8 7 1 12 8 9 15 11 6 7 7 10 19 22 20
17 16 14 12 11 9 8 5 7 6 10 13 4 13 4 7 7 9 6 10 13 12 14 18 12 4 14 11 10 13 10 9 9 8 8 9 13 9 8 5 5 8 18 20 20
19 18 16 14 11 6 7 7 7 9 11 21 6 8 4 4 4 4 3 12 13 12 4 11 3 11 7 7 9 10 11 12 12 15 12 15 19 17 8 13 11 17 17 18 18
20 18 17 15 13 5 12 6 8 7 8 8 8 10 8 10 5 8 8 7 11 8 7 8 9 5 6 10 7 12 12 12 14 16 17 20 17 19 19 27 31 28 24 20 18
21 19 16 16 4 11 7 4 9 7 7 10 8 4 4 8 5 4 4 8 6 9 6 6 10 5 7 5 8 8 12 14 16 18 16 19 15 12 20 24 21 8 17 16 17
22 20 16 5 11 9 7 8 7 4 6 14 10 8 8 10 7 7 3 7 11 10 6 4 8 8 10 14 9 12 14 14 22 21 20 19 4 3 18 16 15 15 17 17 15
22 20 18 5 6 13 8 10 6 7 5 7 5 8 8 10 5 7 5 4 3 8 5 3 1 4 10 7 11 8 17 20 21 19 13 0 5 11 12 17 15 13 14 13 11
24 20 10 8 7 10 9 8 7 9 9 8 6 7 13 9 2 2 4 7 6 5 3 12 4 6 3 10 12 15 16 10 13 9 11 12 5 10 14 16 16 11 10 10 10
27 17 9 9 8 8 7 8 9 3 4 8 7 3 10 9 4 1 5 10 5 7 11 9 6 12 5 9 12 16 12 9 14 13 16 13 6 6 11 13 17 15 11 11 10
27 7 8 1 5 6 8 8 6 12 12 9 7 7 10 6 7 5 10 5 5 9 7 10 4 15 6 2 8 7 8 15 12 16 11 1 9 8 7 8 13 13 11 11 10
7 10 2 4 2 6 7 13 7 5 6 7 12 9 9 5 11 10 8 10 4 5 8 9 10 13 16 16 8 8 14 6 10 9 12 14 9 8 1 13 13 12 11 11 10
5 6 6 5 4 6 8 5 2 10 7 6 11 14 9 12 3 12 2 6 9 8 8 9 7 12 16 14 10 12 11 10 6 7 10 10 7 15 18 17 8 12 16 12 8
6 5 6 3 6 7 5 8 4 8 6 7 6 11 12 13 10 9 12 9 5 7 9 10 4 9 17 20 13 8 10 5 4 8 8 12 3 12 13 11 7 12 13 8 4
8 8 5 3 5 6 6 4 4 7 4 7 8 4 9 7 8 8 5 9 4 7 5 9 6 9 12 7 10 7 8 9 11 6 9 12 5 9 5 6 11 9 7 7 5
7 5 3 3 4 7 10 5 2 5 10 4 9 10 7 10 9 5 13 7 7 11 4 3 5 11 12 18 19 18 15 15 11 3 16 10 5 4 6 8 10 11 9 8 9
5 4 5 6 8 10 5 9 7 5 3 3 7 7 9 8 11 8 8 11 7 1 0 4 9 12 15 18 19 19 15 13 17 15 10 8 16 18 10 10 7 5 6 8 7
6 6 9 9 5 8 1 7 7 4 2 10 3 6 7 7 12 11 9 7 8 10 7 8 10 14 17 18 19 18 9 9 15 13 11 12 10 5 13 9 4 6 12 13 14
8 7 6 6 5 7 5 1 3 9 1 6 10 10 11 11 8 8 7 4 7 7 8 8 9 10 14 18 18 5 11 12 10 13 8 8 4 7 6 13 12 12 12 13 14
Wind_Direction
315 312 312 303 305 307 310 312 317 314 301 293 303 311 316 318 305 201 243 98 210 9 325 270 245 246 235 258 248 255 265 340 292 326 110 129 262 326 106 140 235 149 152 201 170
322 309 305 310 314 316 312 308 303 298 294 304 310 309 318 322 302 265 146 181 145 39 271 265 274 224 250 239 221 248 241 215 319 35 340 13 268 190 203 216 190 143 167 188 169
322 315 311 304 298 296 296 295 296 295 301 307 305 307 317 316 281 110 193 201 202 261 272 280 281 277 262 255 239 241 270 220 73 31 346 326 309 196 313 301 184 100 300 139 164
318 309 303 299 300 296 293 295 294 298 302 300 307 315 308 264 314 89 174 175 223 265 271 273 254 252 253 237 245 277 340 1 2 15 313 271 322 345 276 329 167 196 129 174 11
331 323 313 304 295 290 290 290 291 293 293 300 310 325 322 240 242 138 142 182 231 242 255 279 281 252 278 220 211 258 285 102 43 271 295 355 297 295 319 358 166 163 148 145 127
335 328 316 304 293 290 289 285 285 288 291 294 315 316 261 278 99 146 196 189 240 234 285 289 343 349 302 326 285 229 277 302 249 59 264 302 311 312 347 354 341 331 174 141 172
335 326 321 309 298 289 284 283 283 283 286 292 318 299 268 269 294 156 205 233 265 293 296 356 331 306 313 267 227 310 277 253 224 188 42 4 280 279 36 11 324 308 301 168 91
334 330 323 310 295 290 285 282 281 280 286 288 286 276 266 34 287 211 234 244 229 254 269 294 297 287 280 291 276 241 251 266 207 130 130 225 304 80 41 353 330 334 60 64 64
337 332 324 315 305 295 289 285 276 276 264 283 252 220 265 126 221 198 234 251 245 264 263 271 271 263 260 241 246 216 242 241 146 128 42 288 292 128 103 24 324 338 69 67 65
340 333 322 314 305 294 284 274 314 274 219 221 257 269 250 200 59 205 235 274 269 261 243 226 243 244 230 237 347 345 267 353 104 83 36 326 303 301 60 56 350 45 68 71 74
342 336 329 319 305 292 277 212 209 206 234 258 201 244 145 105 184 213 183 200 235 244 251 213 242 332 21 13 334 318 337 329 319 51 3 308 289 275 254 119 43 74 82 82 73
342 335 333 320 307 298 247 255 21 314 291 225 252 286 301 320 204 161 233 244 222 253 258 251 251 55 0 349 306 304 308 22 332 359 333 306 286 270 147 89 49 79 79 69 75
341 337 331 319 314 246 246 12 300 309 274 171 200 219 183 240 289 139 232 282 282 258 316 323 72 39 301 283 355 340 10 8 328 319 298 282 294 307 103 58 50 19 63 58 58
340 335 329 321 287 245 238 325 327 21 270 141 187 210 158 239 191 357 292 298 260 330 345 311 60 323 279 20 20 341 6 324 305 301 292 297 285 93 82 77 83 91 54 61 57
337 330 324 322 315 306 356 311 8 274 299 156 141 112 192 241 122 149 297 277 290 10 279 64 12 342 16 22 2 317 321 305 309 291 280 280 12 131 114 93 99 75 67 63 50
334 325 329 170 231 261 318 316 272 236 300 134 149 190 207 226 204 110 220 290 342 296 272 0 137 295 19 321 326 329 347 308 288 273 261 112 255 61 29 93 82 73 65 65 67
329 320 310 311 310 335 316 280 232 253 231 142 186 185 211 157 187 236 182 235 318 304 63 260 134 76 343 349 354 353 316 320 319 348 323 336 9 70 87 89 102 102 86 96 97
322 317 229 265 302 325 291 260 270 287 34 28 343 216 279 132 214 100 268 262 116 327 322 356 99 278 61 9 343 320 338 319 327 320 302 346 344 95 110 102 97 105 117 108 89
311 248 244 205 323 300 278 243 259 2 17 355 307 273 226 172 252 193 244 282 87 360 355 325 292 355 103 5 313 343 329 319 290 277 296 73 81 91 85 110 110 107 93 89 92
315 290 184 302 349 281 269 272 312 25 346 304 280 319 301 106 282 242 30 1 52 15 0 320 320 327 321 336 1 264 339 328 335 330 307 317 103 57 87 136 103 106 100 109 85
261 245 89 292 238 256 255 338 34 78 329 318 311 328 328 314 283 319 113 88 25 38 329 348 4 321 317 312 342 334 330 340 351 315 319 334 45 39 37 94 61 97 89 91 78
296 287 64 309 249 235 265 5 354 317 325 292 297 299 312 330 331 336 60 69 38 350 350 59 332 299 316 303 44 339 319 324 310 314 318 306 334 28 51 67 123 100 104 94 64
307 305 103 276 275 293 130 290 348 317 320 322 309 328 323 320 315 307 20 97 55 56 39 0 347 317 318 288 86 282 252 298 307 339 283 298 34 50 39 81 79 115 136 79 16
280 299 149 218 311 303 357 283 159 134 288 292 292 319 288 287 277 246 278 83 68 72 60 26 298 302 305 324 317 312 316 313 6 92 295 54 48 145 204 98 77 47 65 58 54
272 36 17 330 29 339 350 326 308 280 159 283 299 248 293 311 296 303 59 79 116 122 253 61 300 317 309 304 302 291 325 22 288 21 49 24 43 10 32 34 58 48 87 70 20
335 347 346 288 324 289 171 271 295 334 10 325 264 347 313 27 23 33 16 37 141 248 349 347 311 306 300 291 292 304 78 327 39 33 52 68 78 22 311 340 78 37 46 20 23
13 332 279 303 238 262 278 143 14 8 82 320 345 324 47 34 9 4 348 324 329 331 345 337 312 307 296 314 304 0 4 28 77 60 18 4 238 221 312 55 41 30 23 22 26